KLM325 EHAM-DGAA

Flight info

Callsign KLM325
Flight time N/A
Altitude 23000
Route WOODY N872 CIV/N0482F350 N872 MEDIL DCT KOVIN DCT DUCRA DCT RESMI DCT DEKOD DCT DISAK DCT DIRMO DCT ETAMO DCT ADEKA DCT MOKDI DCT MEN DCT BADAM DCT KANIG DCT KENAS DCT POS N855 GENIO DCT MOGIL UB31 ZEM/N0485F360 UZ333 KAHIL UB726 GHA/N0485F370 UA615 TMS UA604 EREBO/N0488F380 DCT MIGNI DCT ABALA DCT IPUTA DCT TATAT DCT KILMO DCT LITEX LITEX1B
Aircraft B77W/H-SDE1E2E3FGHIJ2J3J4J5M1RWXY/LB1D1

Departure

Time 2026-04-27 14:15
Airport Amsterdam Airport Schiphol (EHAM)

Arrival

Time N/A
Airport Kotoka International Airport (DGAA)
Time Latitude Longitude Altitude Speed Heading
2026-04-27 13:07 52.31364 4.76173 2 ft 0 kts 177°
2026-04-27 13:58 52.31381 4.76172 2 ft 4 kts 178°
2026-04-27 13:59 52.31408 4.76171 2 ft 4 kts 182°
2026-04-27 13:59 52.31435 4.76175 2 ft 4 kts 199°
2026-04-27 13:59 52.31453 4.76195 2 ft 4 kts 260°
2026-04-27 13:59 52.31455 4.76234 2 ft 4 kts 266°
2026-04-27 14:00 52.31456 4.76250 2 ft 0 kts 266°
2026-04-27 14:04 52.31454 4.76214 2 ft 7 kts 267°
2026-04-27 14:04 52.31450 4.76083 2 ft 15 kts 267°
2026-04-27 14:05 52.31486 4.75926 3 ft 16 kts 325°
2026-04-27 14:05 52.31523 4.75761 2 ft 16 kts 270°
2026-04-27 14:05 52.31518 4.75577 2 ft 16 kts 266°
2026-04-27 14:05 52.31511 4.75394 2 ft 16 kts 266°
2026-04-27 14:06 52.31504 4.75209 2 ft 16 kts 266°
2026-04-27 14:06 52.31498 4.75025 2 ft 16 kts 267°
2026-04-27 14:06 52.31492 4.74841 2 ft 16 kts 266°
2026-04-27 14:06 52.31486 4.74657 2 ft 16 kts 267°
2026-04-27 14:07 52.31480 4.74472 2 ft 16 kts 266°
2026-04-27 14:07 52.31513 4.74308 2 ft 16 kts 331°
2026-04-27 14:07 52.31625 4.74300 5 ft 16 kts
2026-04-27 14:07 52.31740 4.74311 3 ft 18 kts
2026-04-27 14:08 52.31874 4.74322 -1 ft 20 kts
2026-04-27 14:08 52.31983 4.74325 -1 ft 11 kts 349°
2026-04-27 14:08 52.32027 4.74229 -1 ft 11 kts 278°
2026-04-27 14:08 52.32029 4.74097 -1 ft 12 kts 271°
2026-04-27 14:09 52.32035 4.73962 1 ft 12 kts 275°
2026-04-27 14:09 52.32042 4.73828 4 ft 12 kts 275°
2026-04-27 14:09 52.32049 4.73693 6 ft 12 kts 274°
2026-04-27 14:09 52.32055 4.73558 6 ft 12 kts 274°
2026-04-27 14:10 52.32069 4.73424 6 ft 12 kts 290°
2026-04-27 14:10 52.32127 4.73301 5 ft 15 kts 317°
2026-04-27 14:10 52.32215 4.73178 4 ft 18 kts 319°
2026-04-27 14:10 52.32315 4.73035 1 ft 21 kts 319°
2026-04-27 14:11 52.32426 4.72878 2 ft 21 kts 319°
2026-04-27 14:11 52.32539 4.72718 1 ft 22 kts 319°
2026-04-27 14:11 52.32653 4.72558 4 ft 22 kts 318°
2026-04-27 14:11 52.32757 4.72375 4 ft 22 kts 311°
2026-04-27 14:12 52.32859 4.72185 3 ft 22 kts 311°
2026-04-27 14:12 52.32961 4.71996 2 ft 22 kts 311°
2026-04-27 14:12 52.33064 4.71807 2 ft 22 kts 311°
2026-04-27 14:12 52.33145 4.71598 4 ft 22 kts 276°
2026-04-27 14:13 52.33107 4.71495 4 ft 1 kts 166°
2026-04-27 14:13 52.33086 4.71474 6 ft 8 kts 228°
2026-04-27 14:13 52.33010 4.71319 2 ft 27 kts 223°
2026-04-27 14:13 52.32896 4.71150 2 ft 22 kts 227°
2026-04-27 14:14 52.32867 4.70983 1 ft 8 kts 278°
2026-04-27 14:14 52.32898 4.70905 2 ft 8 kts 323°
2026-04-27 14:14 52.32957 4.70892 0 ft 10 kts
2026-04-27 14:14 52.33066 4.70902 -2 ft 37 kts
2026-04-27 14:15 52.33584 4.70955 5 ft 109 kts
2026-04-27 14:15 52.34560 4.71048 4 ft 168 kts
2026-04-27 14:15 52.35834 4.71180 294 ft 186 kts
2026-04-27 14:15 52.37151 4.71335 883 ft 193 kts
2026-04-27 14:16 52.38487 4.71451 1645 ft 191 kts
2026-04-27 14:16 52.39882 4.71603 1924 ft 212 kts
2026-04-27 14:16 52.41302 4.72525 2145 ft 230 kts 41°
2026-04-27 14:16 52.42258 4.74700 2464 ft 247 kts 73°
2026-04-27 14:17 52.42291 4.77505 3177 ft 252 kts 104°
2026-04-27 14:17 52.41427 4.80034 3803 ft 262 kts 135°
2026-04-27 14:17 52.39842 4.81502 4534 ft 267 kts 169°
2026-04-27 14:17 52.38027 4.81624 5379 ft 260 kts 178°
2026-04-27 14:18 52.36210 4.81880 5987 ft 266 kts 172°
2026-04-27 14:18 52.34338 4.82341 6319 ft 275 kts 170°
2026-04-27 14:18 52.32430 4.82861 6292 ft 278 kts 170°
2026-04-27 14:18 52.30527 4.83403 6365 ft 278 kts 169°
2026-04-27 14:19 52.28618 4.83952 7032 ft 279 kts 169°
2026-04-27 14:19 52.26700 4.84503 7809 ft 281 kts 170°
2026-04-27 14:19 52.24759 4.84942 8503 ft 284 kts 177°
2026-04-27 14:19 52.22769 4.84957 9153 ft 288 kts 182°